Anniston, AL

6:19 AM CDT on July 28, 2017 (GMT -0500)
Anniston Metro

Weather History for KANB - November, 2012

Change the Weather History Date:

Sunday, November 18, 2012

  Actual Average Record
Temperature  
Mean Temperature 50 °F 53 °F  
Max Temperature 66 °F 64 °F 80 °F (1958)
Min Temperature 33 °F 41 °F 20 °F (2014)
Degree Days  
Heating Degree Days 15    
Month to date heating degree days 254  
Since 1 July heating degree days 407  
Moisture  
Dew Point 38 °F    
Average Humidity 67    
Maximum Humidity 92    
Minimum Humidity 42    
Precipitation  
Precipitation 0.00 in 0.16 in 2.91 in (2003)
Month to date precipitation 0.99 2.62  
Year to date precipitation 39.26 43.59  
Sea Level Pressure  
Sea Level Pressure 30.36 in    
Wind  
Wind Speed 3 mph (NE)    
Max Wind Speed 14 mph    
Max Gust Speed 18 mph    
Visibility 10 miles    
Events      
T = Trace of Precipitation, MM = Missing Value Source: NWS Daily Summary

Daily Weather History Graph

Daily Weather History Graph

Search for Another Location

Airport or City:

Trip Planner

Search our weather history database for the weather conditions in past years. The results will help you decide how hot, cold, wet, or windy it might be!

Date:

Astronomy

Nov. 18, 2012 Rise Set
Actual Time 6:18 AM CST 4:38 PM CST
Civil Twilight 5:51 AM CST 5:05 PM CST
Nautical Twilight 5:21 AM CST 5:35 PM CST
Astronomical Twilight 4:51 AM CST 6:05 PM CST
Moon 10:47 AM CST (11/18) 9:53 PM CST (11/18)
Length of Visible Light 11h 13m
Length of Day
10h 20m
Waxing Crescent, 30% of the Moon is Illuminated
Nov 18
Waxing Crescent
Nov 20
First Quarter
Nov 28
Full
Dec 6
Last Quarter
Dec 13
New

Hourly Weather History & Observations

Time (CST) Temp. Windchill Dew Point Humidity Pressure Visibility Wind Dir Wind Speed Gust Speed Precip Events Conditions
1:53 AM 36.0 °F 33.3 °F 33.1 °F 89% 30.38 in 10.0 mi ENE 3.5 mph - N/A   Clear
2:53 AM 37.0 °F 34.5 °F 30.9 °F 79% 30.37 in 10.0 mi NE 3.5 mph - N/A   Clear
3:53 AM 39.9 °F 37.8 °F 28.9 °F 65% 30.39 in 10.0 mi North 3.5 mph - N/A   Clear
4:53 AM 35.1 °F 32.2 °F 30.9 °F 85% 30.40 in 10.0 mi NE 3.5 mph - N/A   Clear
5:53 AM 34.0 °F 31.0 °F 30.9 °F 89% 30.42 in 10.0 mi NE 3.5 mph - N/A   Clear
6:53 AM 34.0 °F - 30.0 °F 85% 30.44 in 10.0 mi Calm Calm - N/A   Clear
7:53 AM 39.9 °F - 33.1 °F 77% 30.44 in 10.0 mi Calm Calm - N/A   Mostly Cloudy
8:53 AM 48.0 °F - 35.1 °F 61% 30.43 in 10.0 mi East 5.8 mph - N/A   Overcast
9:53 AM 54.0 °F - 36.0 °F 51% 30.42 in 10.0 mi ENE 10.4 mph - N/A   Mostly Cloudy
10:53 AM 57.0 °F - 39.0 °F 51% 30.39 in 10.0 mi ENE 9.2 mph - N/A   Clear
11:53 AM 60.1 °F - 41.0 °F 49% 30.35 in 10.0 mi ENE 6.9 mph - N/A   Clear
12:53 PM 63.0 °F - 43.0 °F 48% 30.32 in 10.0 mi Variable 3.5 mph - N/A   Partly Cloudy
1:53 PM 64.9 °F - 44.1 °F 47% 30.31 in 10.0 mi ENE 4.6 mph - N/A   Partly Cloudy
2:53 PM 66.0 °F - 43.0 °F 43% 30.30 in 10.0 mi NNE 4.6 mph - N/A   Clear
3:53 PM 64.0 °F - 43.0 °F 46% 30.30 in 10.0 mi ENE 3.5 mph - N/A   Clear
4:53 PM 57.9 °F - 44.1 °F 60% 30.31 in 10.0 mi Calm Calm - N/A   Clear
5:53 PM 50.0 °F - 44.1 °F 80% 30.33 in 10.0 mi Calm Calm - N/A   Partly Cloudy
6:53 PM 51.1 °F - 44.1 °F 77% 30.34 in 10.0 mi Calm Calm - N/A   Mostly Cloudy
7:53 PM 48.0 °F - 44.1 °F 86% 30.34 in 10.0 mi ENE 3.5 mph - N/A   Clear
8:53 PM 44.1 °F - 41.0 °F 89% 30.36 in 10.0 mi Calm Calm - N/A   Clear
9:53 PM 44.1 °F - 41.0 °F 89% 30.35 in 9.0 mi Calm Calm - N/A   Clear
10:53 PM 44.1 °F 42.5 °F 41.0 °F 89% 30.35 in 10.0 mi NE 3.5 mph - N/A   Mostly Cloudy
11:53 PM 42.1 °F 40.2 °F 39.9 °F 92% 30.34 in 10.0 mi East 3.5 mph - N/A   Clear